Regional Weather Roundup
Issued by NWS Sioux Falls, SD

Home | Current Version | Previous Version | Text Only | Print | Product List | Glossary On
Versions: 1 2 3 4 5 6 7 8 9 10 11 12 13 14 15 16 17 18 19 20 21 22 23 24 25 26 27 28 29 30 31 32 33 34 35 36 37 38 39 40 41 42 43 44 45 46 47 48 49 50
000
ASUS43 KFSD 231310
RWRFSD

WEATHER ROUNDUP FOR SE SOUTH DAKOTA/SW MINNESOTA/NW IOWA
NATIONAL WEATHER SERVICE SIOUX FALLS SD
700 AM CST THU FEB 23 2017

NOTE: "FAIR" INDICATES FEW OR NO CLOUDS BELOW 12,000 FEET WITH NO
SIGNIFICANT WEATHER AND OR OBSTRUCTIONS TO VISIBILITY.


SDZ038>040-050-052>070-231400-
SOUTHEAST SOUTH DAKOTA

CITY           SKY/WX    TMP DP  RH WIND       PRES   REMARKS
BROOKINGS      CLOUDY    29  24  82 NE13      29.87F WCI  19
CHAMBERLAIN    CLOUDY    30  27  86 N7        29.91S WCI  23
HURON          CLOUDY    28  25  88 NE13      29.92S WCI  17
MADISON        FAIR      28  28 100 NE16G23   29.88S WCI  17
MITCHELL       MOCLDY    29  27  92 N7        29.93R WCI  22
SIOUX FALLS    CLOUDY    32  27  81 NE15      29.88R WCI  22
WINNER         CLOUDY    30  24  78 NE17      29.88S WCI  18
YANKTON        CLOUDY    32  27  80 N9        29.87R WCI  24
$$

MNZ071-072-080-081-089-090-097-098-231400-
SOUTHWEST MINNESOTA

CITY           SKY/WX    TMP DP  RH WIND       PRES   REMARKS
FAIRMONT       CLOUDY    32  29  88 N12       29.88R WCI  23
JACKSON          N/A     32  28  86 N17       29.86S WCI  21
LUVERNE        CLOUDY    30  27  86 NE13G21   29.87F WCI  20
MARSHALL       PTCLDY    30  27  88 N9        29.93R WCI  22
MONTEVIDEO     PTCLDY    28  27  93 N7        29.95R WCI  21
PIPESTONE      CLOUDY    30  25  80 NE14G20   29.85F WCI  20
REDWOOD FALLS  CLOUDY    31  24  75 N7        29.90S WCI  24
TRACY          CLOUDY    31  29  94 N12       29.91R WCI  21
WINDOM         CLOUDY    30  27  86 N15       29.88R WCI  19
WORTHINGTON    CLOUDY    29  26  89 NE22G28   29.84F WCI  15
$$

IAZ001>003-012>014-020>022-031-032-NEZ013-014-SDZ071-231400-
NORTHWEST IOWA

CITY           SKY/WX    TMP DP  RH WIND       PRES   REMARKS
CHEROKEE       CLOUDY    34  32  93 NE13      29.84S WCI  25
DENISON        CLOUDY    36  32  87 NE12G21   29.81R
ESTHERVILLE    CLOUDY    30  30 100 N17       29.85R WCI  18
LE MARS        CLOUDY    34  32  93 N13G22    29.86S WCI  25
ORANGE CITY    CLOUDY    32  28  86 NE8       29.84F WCI  25
SHELDON        CLOUDY    32  32 100 NE17G23   29.84S WCI  21
SIOUX CITY     CLOUDY    37  31  78 NE13      29.86R
SPENCER        CLOUDY    32  29  88 N14       29.86S WCI  22
STORM LAKE     CLOUDY    34  32  93 NE20G25   29.82S WCI  22
$$

ABBREVIATIONS USED IN REMARKS
   TC - TEMPERATURE IN CELSIUS
  WCI - WIND CHILL INDEX
   HX - HEAT INDEX
  VSB - VISIBILITY





USA.gov is the U.S. government's official web portal to all federal, state and local government web resources and services.